Tracking 25378 objects as of 22-Jan-2022
HD Live streaming from Space Station
objects crossing your sky now

STARLINK-1990

Track STARLINK-1990 now!
10-day predictions
STARLINK-1990 is classified as:


NORAD ID: 47586
Int'l Code: 2021-009AQ
Perigee: 553.2 km
Apogee: 555.5 km
Inclination: 53.1 °
Period: 95.6 minutes
Semi major axis: 6925 km
RCS: Unknown
Launch date: February 4, 2021
Source: United States (US)
Launch site: AIR FORCE EASTERN TEST RANGE (AFETR)
aabbcc
Your satellite tracking list
Your tracking list is empty




NASA's NSSDC Master Catalog

Two Line Element Set (TLE):
1 47586U 21009AQ  22022.14150400 -.00001529  00000-0 -83736-4 0  9995
2 47586  53.0562 329.2634 0001686  68.0065 292.1104 15.06397387 53891
Source of the keplerian elements: AFSPC